Raton, NM

10:45 AM MDT on April 28, 2017 (GMT -0600)
Raton Municipal-Crews

Weather History for KRTN - October, 2013

Change the Weather History Date:

Sunday, October 13, 2013

  Actual Average (KTAD) Record (KTAD)
Temperature  
Mean Temperature 50 °F -  
Max Temperature 64 °F 70 °F 86 °F (1950)
Min Temperature 36 °F 38 °F 10 °F (1969)
Degree Days  
Heating Degree Days 16    
Moisture  
Dew Point 41 °F    
Average Humidity 75    
Maximum Humidity 97    
Minimum Humidity 53    
Precipitation  
Precipitation 0.10 in - - ()
Sea Level Pressure  
Sea Level Pressure 30.11 in    
Wind  
Wind Speed 10 mph (SSW)    
Max Wind Speed 32 mph    
Max Gust Speed 39 mph    
Visibility 10 miles    
Events Rain    
Averages and records for this station are not official NWS values.
T = Trace of Precipitation, MM = Missing Value Source: NWS Daily Summary

Daily Weather History Graph

Daily Weather History Graph

Search for Another Location

Airport or City:

Trip Planner

Search our weather history database for the weather conditions in past years. The results will help you decide how hot, cold, wet, or windy it might be!

Date:

Astronomy

Oct. 13, 2013 Rise Set
Actual Time 7:03 AM MDT 6:23 PM MDT
Civil Twilight 6:37 AM MDT 6:49 PM MDT
Nautical Twilight 6:07 AM MDT 7:19 PM MDT
Astronomical Twilight 5:37 AM MDT 7:49 PM MDT
Moon 3:09 PM MDT (10/13) 1:24 AM MDT (10/13)
Length of Visible Light 12h 11m
Length of Day
11h 19m
Waxing Gibbous, 70% of the Moon is Illuminated
Oct 13
Waxing Gibbous
Oct 18
Full
Oct 26
Last Quarter
Nov 3
New
Nov 9
First Quarter

Hourly Weather History & Observations

Time (MDT) Temp. Windchill Dew Point Humidity Pressure Visibility Wind Dir Wind Speed Gust Speed Precip Events Conditions
12:53 AM 37.9 °F - 32.0 °F 79% 30.17 in 10.0 mi Calm Calm - N/A   Clear
1:53 AM 41.0 °F 38.0 °F 32.0 °F 70% 30.16 in 10.0 mi WSW 4.6 mph - N/A   Clear
2:53 AM 37.9 °F 33.5 °F 32.0 °F 79% 30.16 in 10.0 mi West 5.8 mph - N/A   Clear
3:53 AM 37.0 °F - 32.0 °F 82% 30.17 in 10.0 mi Calm Calm - N/A   Clear
4:53 AM 37.0 °F 33.3 °F 32.0 °F 82% 30.17 in 10.0 mi West 4.6 mph - N/A   Clear
5:53 AM 37.0 °F 32.4 °F 32.0 °F 82% 30.18 in 10.0 mi WSW 5.8 mph - N/A   Clear
6:53 AM 36.0 °F 30.3 °F 32.0 °F 86% 30.22 in 10.0 mi WSW 6.9 mph - N/A   Clear
7:53 AM 42.1 °F - 36.0 °F 79% 30.22 in 10.0 mi Calm Calm - N/A   Mostly Cloudy
8:53 AM 45.0 °F 41.8 °F 36.0 °F 71% 30.22 in 10.0 mi South 5.8 mph - N/A   Mostly Cloudy
9:53 AM 46.9 °F - 36.0 °F 66% 30.21 in 10.0 mi South 5.8 mph - N/A   Overcast
10:49 AM 51.8 °F - 37.4 °F 58% 30.27 in 10.0 mi South 11.5 mph - N/A   Overcast
10:53 AM 52.0 °F - 39.0 °F 61% 30.17 in 10.0 mi South 12.7 mph - N/A   Overcast
11:13 AM 53.6 °F - 39.2 °F 58% 30.26 in 10.0 mi South 15.0 mph - N/A   Overcast
11:53 AM 55.0 °F - 39.9 °F 57% 30.14 in 10.0 mi South 10.4 mph - N/A   Overcast
12:53 PM 60.1 °F - 43.0 °F 53% 30.08 in 10.0 mi South 19.6 mph 27.6 mph N/A   Scattered Clouds
1:53 PM 60.1 °F - 45.0 °F 57% 30.02 in 10.0 mi South 16.1 mph 26.5 mph N/A   Clear
2:53 PM 63.0 °F - 46.0 °F 54% 29.99 in 10.0 mi SSE 21.9 mph 29.9 mph N/A   Clear
3:53 PM 62.1 °F - 48.0 °F 60% 29.96 in 10.0 mi South 32.2 mph 39.1 mph N/A   Clear
4:53 PM 57.0 °F - 46.0 °F 67% 30.00 in 10.0 mi South 24.2 mph 36.8 mph N/A   Clear
5:28 PM 55.4 °F - 46.4 °F 72% 30.12 in 10.0 mi South 25.3 mph 33.4 mph N/A   Mostly Cloudy
5:53 PM 54.0 °F - 46.0 °F 75% 30.01 in 10.0 mi SSW 26.5 mph 35.7 mph N/A   Mostly Cloudy
6:53 PM 53.1 °F - 46.9 °F 80% 30.05 in 10.0 mi South 21.9 mph 32.2 mph N/A   Overcast
7:11 PM 53.6 °F - 46.4 °F 77% 30.15 in 10.0 mi SSW 20.7 mph 31.1 mph N/A   Overcast
7:53 PM 52.0 °F - 46.9 °F 83% 30.04 in 10.0 mi South 18.4 mph - N/A   Overcast
8:16 PM 51.8 °F - 48.2 °F 88% 30.15 in 10.0 mi South 21.9 mph 28.8 mph N/A   Overcast
8:53 PM 52.0 °F - 48.0 °F 86% 30.03 in 10.0 mi South 18.4 mph 24.2 mph N/A   Overcast
9:53 PM 52.0 °F - 48.9 °F 89% 30.01 in 10.0 mi SW 12.7 mph - N/A   Overcast
10:53 PM 52.0 °F - 51.1 °F 97% 29.95 in 8.0 mi South 24.2 mph 33.4 mph 0.04 in Rain Light Rain
11:28 PM 51.8 °F - 50.0 °F 94% 30.11 in 10.0 mi South 19.6 mph 33.4 mph 0.04 in Rain Light Rain
11:53 PM 51.1 °F - 50.0 °F 96% 29.94 in 4.0 mi South 20.7 mph 28.8 mph 0.06 in Rain Light Rain